This is the latest recevied weather packets stored in our database for station/object KG7DQI-13. If no packets are shown the sender has not sent any weather packets the latest 10 day(s).
| Time | Temp. | Humidity | Pressure | Rain* | Wind** | Luminosity | Snow |
|---|---|---|---|---|---|---|---|
| 1777039085 | -2.78° C | 92% | 917.1 hPa | 0 mm | - | 77 W/m² | - |
| 1777038189 | -3.89° C | 91% | 917.1 hPa | 0 mm | - | 44 W/m² | - |
| 1777037279 | -3.89° C | 90% | 917.1 hPa | 0 mm | - | 14 W/m² | - |
| 1777036411 | -3.89° C | 90% | 917.2 hPa | 0 mm | - | 5 W/m² | - |
| 1777035484 | -3.33° C | 91% | 917.1 hPa | 0 mm | - | 0 W/m² | - |
| 1777034594 | -2.78° C | 88% | 917 hPa | 0 mm | - | 0 W/m² | - |
| 1777033650 | -2.22° C | 92% | 917.1 hPa | 0 mm | - | 0 W/m² | - |
| 1777032716 | -2.22° C | 89% | 917.1 hPa | 0 mm | - | 0 W/m² | - |
| 1777031803 | -1.67° C | 89% | 917 hPa | 0 mm | - | 0 W/m² | - |
| 1777030864 | -1.67° C | 89% | 917.1 hPa | 0 mm | - | 0 W/m² | - |
| 1777029925 | -1.11° C | 89% | 917.1 hPa | 0 mm | - | 0 W/m² | - |
| 1777029043 | -0.56° C | 89% | 917.1 hPa | 0 mm | - | 0 W/m² | - |
| 1777028116 | 0.56° C | 88% | 917.1 hPa | 0 mm | - | 0 W/m² | - |
| 1777027178 | 1.11° C | 88% | 916.9 hPa | 0 mm | - | 0 W/m² | - |
| 1777026257 | 1.67° C | 88% | 916.9 hPa | 0 mm | - | 0 W/m² | - |
| 1777025321 | 1.11° C | 90% | 917 hPa | 0 mm | - | 0 W/m² | - |
| 1777024428 | 1.11° C | 94% | 917.1 hPa | 0 mm | - | 0 W/m² | - |
| 1777023538 | -0.56° C | 92% | 917.1 hPa | 0 mm | - | 0 W/m² | - |
| 1777022658 | -1.11° C | 90% | 917.1 hPa | 0 mm | - | 0 W/m² | - |
| 1777021751 | -1.67° C | 88% | 917 hPa | 0 mm | - | 0 W/m² | - |
| 1777020818 | -1.11° C | 89% | 917.1 hPa | 0 mm | - | 0 W/m² | - |
| 1777019878 | -0.56° C | 87% | 916.9 hPa | 0 mm | - | 0 W/m² | - |
| 1777018969 | -0.56° C | 91% | 916.9 hPa | 0 mm | - | 0 W/m² | - |
| 1777018022 | -1.11° C | 88% | 916.9 hPa | 0 mm | - | 0 W/m² | - |
| 1777017103 | -1.11° C | 87% | 916.8 hPa | 0 mm | - | 0 W/m² | - |
* Rain latest hour (hover to see other rain measurements)
** Current wind speed in m/s (hover to see current wind gust speed)